COSMOS 394

导读

**COSMOS 394卫星摘要** COSMOS 394是独联体(CIS)发射的宇宙系列卫星,于1971年2月9日08:00发射升空。作为苏联时代典型的宇宙卫星系列成员,该卫星任务最初未对外公开,推测兼顾科学实验与军事侦察用途,这类卫星常以Nauka科学模块搭载探测设备,是冷战时期苏联航天技术发展的代表性产物,延续了宇宙系列卫星多用途任务模式。

基本信息
目录编号:
4922
目录名称:
COSMOS 394
国际标识:
1971-010A
轨道中心:
EARTH
卫星名称:
COSMOS 394
卫星全名:
--
卫星状态:
在轨 (已飞行20303 天)
发射日期:
1971-02-09 UTC
国别 :
俄罗斯(独联体) (CIS)
星等 :
--
轨道信息
数据来源 国际轨道数据
星历时间: 2026-09-11T03:38:20+0800
9小时前
查看轨道信息
半长轴: 6796.717km
偏心率: 0.0006768
轨道倾角: 65.821°
近地点辐角 230.177°
升交点赤经 354.523°
平近点角 129.879°
近地点: 413.979km
远地点: 423.181km
周期: 92.941分钟
每日圈数: 15.493661
详细信息
使用方式:
暂无
2D轨道图
3D轨道图
轨道高度分析图
轨道倾角分析图
轨道综合分析图
查看轨道综合分析图
与全量物体交会距离演化趋势
与全量物体交会风险概率演化趋势